Regional Weather Roundup
Issued by NWS

Home | Current Version | Previous Version | Text Only | Print | Product List | Glossary On
Versions: 1 2 3 4 5 6 7 8 9 10 11 12 13 14 15 16 17 18 19 20 21 22 23 24 25 26 27
000
ASUS45 KPSR 240810
RWRAZ

ARIZONA HOURLY REGIONAL WEATHER ROUNDUP
NATIONAL WEATHER SERVICE PHOENIX AZ
100 AM MST FRI FEB 24 2017

NOTE: FAIR INDICATES FEW OR NO CLOUDS BELOW 12,000 FEET WITH NO
SIGNIFICANT WEATHER AND/OR OBSTRUCTIONS TO VISIBILITY.

AZZ001>003-036-240900-
NORTHWEST ARIZONA

CITY           SKY/WX    TMP DP  RH WIND       PRES   REMARKS
BULLHEAD CITY  CLEAR     48  19  32 CALM      30.03R
KINGMAN        CLEAR     31   3  30 S8        29.99R WCI  23
$$

AZZ004>008-015-016-018-240900-
NORTH CENTRAL ARIZONA

CITY           SKY/WX    TMP DP  RH WIND       PRES   REMARKS
GRAND CANYON   MOCLDY    20  11  68 SW7       29.91R WCI  11
WILLIAMS       CLEAR     21   7  53 SW6       29.93R WCI  14
PRESCOTT       CLEAR     29  14  53 SW8       29.96R WCI  21
FLAGSTAFF      CLEAR     21   6  52 W6        29.91R WCI  13
PAYSON         CLEAR     32  21  64 W7        29.98S WCI  26
PAGE           CLEAR     35   7  31 NW3       29.90R
$$

AZZ009>014-017-240900-
NORTHEAST ARIZONA

CITY           SKY/WX    TMP DP  RH WIND       PRES   REMARKS
WINSLOW        CLEAR     32  17  54 CALM      29.94R
SAINT JOHNS    CLEAR     31  16  54 SW17      29.89S WCI  19
WINDOW ROCK    CLOUDY    29   8  41 W12       29.85S WCI  19
SHOW LOW       CLOUDY    27  16  63 S8        29.95S WCI  18
$$

AZZ023-240900-
GREATER PHOENIX AREA

CITY           SKY/WX    TMP DP  RH WIND       PRES   REMARKS
PHOENIX        CLEAR     49  26  41 SW3       29.99R
BUCKEYE        CLEAR     39  36  87 SW3       30.02R
LUKE AFB       CLEAR     44  32  63 N3        29.99R
DEER VALLEY    CLEAR     44  33  65 N3        29.98S
SCOTTSDALE     CLEAR     46  29  51 CALM      30.00R
MESA-GATEWAY   CLEAR     45  27  49 CALM      30.01R
$$

AZZ027-028-240900-
SOUTHWEST MARICOPA COUNTY AND PINAL COUNTY

CITY           SKY/WX    TMP DP  RH WIND       PRES   REMARKS
CASA GRANDE    NOT AVBL
GILA BEND      FAIR     N/A N/A N/A S7          N/A
$$

AZZ503-504-507>509-240900-
SOUTHEAST ARIZONA

CITY           SKY/WX    TMP DP  RH WIND       PRES   REMARKS
TUCSON         CLEAR     46  17  31 CALM      30.03R
DAVIS-MONTHAN  CLEAR     41  19  40 SW5       30.02R
NOGALES        CLEAR     36  22  56 CALM      30.02R
SIERRA VISTA   CLEAR     38  17  43 NW15      29.99R WCI  29
DOUGLAS        CLEAR     35  16  45 N10       29.98R WCI  27
SAFFORD        CLEAR     42  16  34 NW16G23   29.95R
$$

AZZ020-021-025-026-031-240900-
SOUTHWEST ARIZONA

CITY           SKY/WX    TMP DP  RH WIND       PRES   REMARKS
YUMA           CLEAR     54  31  41 NW9       30.04R
$$

CAZ031-033-041-043-047-048-061-240900-
SOUTHERN CALIFORNIA

CITY           SKY/WX    TMP DP  RH WIND       PRES   REMARKS
DOWNTOWN L.A.  CLEAR     51  16  24 CALM      30.10S
L.A. AIRPORT   CLEAR     51  17  26 N5        30.11R
SAN DIEGO      PTCLDY    52  36  54 CALM      30.15R
BURBANK        CLEAR     47  14  26 NW6       30.10R
ONTARIO        CLEAR     43  33  68 E3        30.11R
RIVERSIDE      CLEAR     43  36  76 CALM      30.11R
PALM SPRINGS   CLEAR     53  31  42 W5        30.05R
EL CENTRO NAS  CLEAR     50  30  46 W12       30.06R
IMPERIAL       CLEAR     50  33  52 W13       30.03R
BLYTHE         CLEAR     49  24  37 N12       30.04R
NEEDLES        CLEAR     50  25  37 W7        30.02R
$$

NVZ020-UTZ003-240900-
SOUTHERN NEVADA-UTAH

CITY           SKY/WX    TMP DP  RH WIND       PRES   REMARKS
LAS VEGAS      CLEAR     47   5  18 NW15G21   30.00R
SALT LAKE CITY CLOUDY    27  24  89 N7        29.92S WCI  19
$$

NMZ009-TXZ055-240900-
NEW MEXICO-WEST TEXAS

CITY           SKY/WX    TMP DP  RH WIND       PRES   REMARKS
ALBUQUERQUE    PTCLDY    36  14  40 W8        29.84R WCI  30
EL PASO        CLEAR     56   3  11 SW15G28   29.86R
$$


........................KEY........................
SKY/WX - SKY CONDITION/WEATHER
TMP    - TEMPERATURE IN FAHRENHEIT
DP     - DEW POINT IN FAHRENHEIT
RH     - RELATIVE HUMIDITY IN PERCENT
WIND   - DIRECTION AND SPEED IN MILES PER HOUR (MPH)
VRB    - VARIABLE WIND DIRECTION
PRES   - MEAN SEA LEVEL PRESSURE IN INCHES OF MERCURY
         F - FALLING PRESSURE   R - RISING PRESSURE
         S - STEADY PRESSURE
VSB    - VISIBILITY IN MILES
HX     - HEAT INDEX IN FAHRENHEIT
WCI    - WIND CHILL INDEX IN FAHRENHEIT
TC     - TEMPERATURE IN CELSIUS WHICH IS ALSO KNOWN AS
         TEMPERATURE IN CENTIGRADE
AFB    - AIR FORCE BASE
         LUKE AFB IS LUKE AIR FORCE BASE
         DAVIS-MONTHAN IS DAVIS-MONTHAN AIR FORCE BASE
NAS    - NAVAL AIR STATION
         EL CENTRO NAS IS EL CENTRO NAVAL AIR STATION
N/A    - NOT AVAILABLE





USA.gov is the U.S. government's official web portal to all federal, state and local government web resources and services.